BEIDOU-3 G3

Last updated on Wed Sep 17 2025 00:02:50 GMT+0000 (Coordinated Universal Time)

1 45807U 20040A 25259.66394780 -.00000373 00000+0 00000+0 0 9998 2 45807 1.7762 65.5939 0004223 329.3027 310.5623 1.00272501 19326
UTC large
Height (km)
Speed (km/s)
/
Latitude / Longitude
Inclination (degrees)
Orbital Period (minutes)
Azimuth
Elevation
Range (km)
Doppler Factor

Next 0 passes for location: London (51.5072 / 0.1276)

Sorry there are no passes over London.